Flight Track Log - Related Links

Times and Time Zones

All times are in EDT time to prevent confusion due to time zone crossing. See the CSJ405 flight status page for this flight to view local times or setup timezone preferences in your user account.

Time Position Orientation Groundspeed Altitude Reporting Facility
EDT Latitude Longitude Course Direction KTS MPH feet Rate Location/Type
Wed 06:09:00 PM 42.7381 -73.8083 197° South 110 127 900  Level Boston Center
Wed 06:10:07 PM 42.7067 -73.8217 197° South 122 140 2,100 1,172 Climbing Boston Center
Wed 06:11:08 PM 42.6794 -73.8408 207° Southwest 112 129 3,400 1,190 Climbing Boston Center
Wed 06:12:08 PM 42.6500 -73.8600 206° Southwest 114 131 4,500 1,043 Climbing Boston Center
Wed 06:13:03 PM 42.6247 -73.8764 206° Southwest 113 130 5,400 1,086 Climbing Boston Center
Wed 06:14:04 PM 42.5972 -73.9094 222° Southwest 118 136 6,600 1,039 Climbing Boston Center
Wed 06:15:10 PM 42.5678 -73.9286 206° Southwest 117 135 7,600 661 Climbing Boston Center
Wed 06:16:11 PM 42.5361 -73.9503 207° Southwest 126 145 8,000 207 Climbing Boston Center
Wed 06:17:06 PM 42.5025 -73.9750 208° Southwest 148 170 8,000  Level Boston Center
Wed 06:18:00 PM 42.4731 -74.0081 220° Southwest 156 180 8,000  Level Boston Center
Wed 06:19:01 PM 42.4372 -74.0353 209° Southwest 149 171 8,000  Level Boston Center
Wed 06:20:02 PM 42.3992 -74.0622 208° Southwest 150 173 8,000  Level Boston Center
Wed 06:21:15 PM 42.3572 -74.0892 205° Southwest 150 173 8,000  Level Boston Center
Wed 06:22:15 PM 42.3172 -74.1219 211° Southwest 150 173 8,000  Level Boston Center
Wed 06:23:15 PM 42.2853 -74.1492 212° Southwest 150 173 8,000  Level Boston Center
Wed 06:24:15 PM 42.2497 -74.1733 207° Southwest 150 173 8,000  Level Boston Center
Wed 06:25:15 PM 42.2136 -74.2033 212° Southwest 150 173 8,000 50 Level Boston Center
Wed 06:26:15 PM 42.1778 -74.2331 212° Southwest 150 173 8,100  Climbing Boston Center
Wed 06:27:15 PM 42.1400 -74.2572 205° Southwest 150 173 8,000 -50 Descending Boston Center
Wed 06:28:15 PM 42.1039 -74.2869 211° Southwest 150 173 8,000  Level Boston Center
Wed 06:29:15 PM 42.0681 -74.3111 207° Southwest 155 178 8,000  Level Boston Center
Wed 06:30:15 PM 42.0322 -74.3353 207° Southwest 155 178 8,000  Level Boston Center
Wed 06:31:15 PM 42.0008 -74.3567 207° Southwest 148 170 8,000  Level Boston Center
Wed 06:32:15 PM 41.9628 -74.3722 197° South 137 158 8,000  Level Boston Center
Wed 06:33:15 PM 41.9272 -74.3906 201° Southwest 137 158 8,000  Level Boston Center
Wed 06:34:15 PM 41.8894 -74.4089 200° South 148 170 8,000  Level Boston Center
Wed 06:35:15 PM 41.8514 -74.4272 200° South 148 170 8,000  Level Boston Center
Wed 06:36:15 PM 41.8139 -74.4372 191° South 143 165 8,000  Level Boston Center
Wed 06:37:15 PM 41.7761 -74.4528 197° South 148 170 8,000  Level Boston Center
Wed 06:38:15 PM 41.7403 -74.4683 198° South 148 170 8,000  Level Boston Center
Wed 06:39:15 PM 41.7025 -74.4839 197° South 148 170 8,000  Level Boston Center
Wed 06:40:15 PM 41.6669 -74.4967 195° South 148 170 8,000 -200 Level Boston Center
Wed 06:41:15 PM 41.6311 -74.5147 201° Southwest 143 165 7,600 -750 Descending Boston Center
Wed 06:42:15 PM 41.5892 -74.5328 198° South 155 178 6,500 -750 Descending Boston Center
Wed 06:43:15 PM 41.5492 -74.5428 191° South 155 178 6,100 -250 Descending Boston Center
Wed 06:44:15 PM 41.5094 -74.5581 196° South 155 178 6,000 -50 Descending Boston Center
Wed 06:45:15 PM 41.4714 -74.5761 200° South 150 173 6,000  Level Boston Center
Wed 06:46:15 PM 41.4317 -74.5886 193° South 150 173 6,000  Level Boston Center
Wed 06:48:17 PM 41.3500 -74.6167 194° South 154 177 6,000  Level New York TRACON
Wed 06:49:17 PM 41.3000 -74.6000 166° South 152 175 6,000  Level New York TRACON
Wed 06:50:17 PM 41.2667 -74.6000 180° South 152 175 6,000  Level New York TRACON
Wed 06:51:23 PM 41.2167 -74.5833 166° South 153 176 6,000 -238 Level New York TRACON
Wed 06:52:23 PM 41.1667 -74.5667 166° South 158 182 5,500 -1,000 Descending New York TRACON
Wed 06:53:17 PM 41.1333 -74.5667 180° South 172 198 4,100 -750 Descending New York TRACON
Wed 06:54:23 PM 41.0833 -74.5500 166° South 148 170 4,000 -48 Descending New York TRACON
Wed 06:55:23 PM 41.0500 -74.5500 180° South 154 177 4,000  Level New York TRACON
Wed 06:56:23 PM 41.0000 -74.5333 166° South 156 180 4,000  Level New York TRACON
Wed 06:57:23 PM 40.9667 -74.5167 159° South 154 177 4,000 -100 Level New York TRACON
Wed 06:58:23 PM 40.9167 -74.5167 180° South 150 173 3,800 -429 Descending New York TRACON
Wed 06:59:29 PM 40.8833 -74.5000 159° South 150 173 3,100 -400 Descending New York TRACON
Wed 07:00:23 PM 40.8333 -74.5000 180° South 149 171 3,000 -111 Descending New York TRACON
Wed 07:01:17 PM 40.8000 -74.4833 159° South 159 183 2,900 -105 Descending New York TRACON
Wed 07:02:17 PM 40.7500 -74.4667 166° South 158 182 2,800 48 Descending New York TRACON
Wed 07:03:23 PM 40.7167 -74.4667 180° South 124 143 3,000 190 Climbing New York TRACON
Wed 07:04:23 PM 40.6833 -74.4500 159° South 122 140 3,200 53 Climbing New York TRACON
Wed 07:05:17 PM 40.6833 -74.4333 90° East 150 173 3,100 -211 Descending New York TRACON
Wed 07:06:17 PM 40.7167 -74.4000 37° Northeast 164 189 2,800 -450 Descending New York TRACON
Wed 07:07:17 PM 40.7667 -74.3667 27° Northeast 153 176 2,200 -524 Descending New York TRACON
Wed 07:08:23 PM 40.8000 -74.3333 37° Northeast 152 175 1,700 -500 Descending New York TRACON
Wed 07:09:17 PM 40.8333 -74.3167 21° North 132 152 1,200 -556 Descending New York TRACON

Login

Don't have an account? Register now (free) for customized features, flight alerts, and more!